Sisseton, SD

7:32 AM CST on February 24, 2017 (GMT -0600)
Sisseton

Weather History for K8D3 - March, 2013

Change the Weather History Date:

Saturday, March 30, 2013

  Actual Average Record
Temperature  
Mean Temperature 36 °F 36 °F  
Max Temperature 39 °F 47 °F 79 °F (1967)
Min Temperature 32 °F 26 °F -10 °F (1975)
Degree Days  
Heating Degree Days 29 29  
Month to date heating degree days 1404 1056  
Since 1 July heating degree days 7789 7315  
Cooling Degree Days 0 0  
Month to date cooling degree days 0 0  
Year to date cooling degree days 0 0  
Moisture  
Dew Point 33 °F    
Average Humidity 91    
Maximum Humidity 100    
Minimum Humidity 82    
Precipitation  
Precipitation 0.01 in 0.06 in 0.48 in (2007)
Month to date precipitation 0.97 1.06  
Year to date precipitation 3.35 1.92  
Snow  
Snow 0.00 in - - ()
Month to date snowfall 5.4  
Since 1 July snowfall 42.1  
Snow Depth 10.00 in    
Sea Level Pressure  
Sea Level Pressure 29.98 in    
Wind  
Wind Speed 11 mph (NNW)    
Max Wind Speed 18 mph    
Max Gust Speed 23 mph    
T = Trace of Precipitation, MM = Missing Value Source: NWS Daily Summary

Daily Weather History Graph

Daily Weather History Graph

Search for Another Location

Airport or City:

Trip Planner

Search our weather history database for the weather conditions in past years. The results will help you decide how hot, cold, wet, or windy it might be!

Date:

Astronomy

Mar. 30, 2013 Rise Set
Actual Time 7:11 AM CDT 7:54 PM CDT
Civil Twilight 6:41 AM CDT 8:24 PM CDT
Nautical Twilight 6:05 AM CDT 8:59 PM CDT
Astronomical Twilight 5:28 AM CDT 9:37 PM CDT
Moon No Moon Rise 8:56 AM CDT (3/30)
Length of Visible Light 13h 42m
Length of Day
12h 42m
Waning Gibbous, 86% of the Moon is Illuminated
Mar 30
Waning Gibbous
Apr 2
Last Quarter
Apr 10
New
Apr 18
First Quarter
Apr 25
Full

Hourly Weather History & Observations

Time (CDT) Temp. Windchill Dew Point Humidity Pressure Visibility Wind Dir Wind Speed Gust Speed Precip Events Conditions
12:56 AM 34.0 °F 23.8 °F 34.0 °F 100% 29.96 in - North 16.1 mph 20.7 mph 0.03 in   Unknown
1:56 AM 35.1 °F 32.2 °F 34.0 °F 96% 29.94 in - Variable 3.5 mph - 0.01 in   Unknown
2:56 AM 33.1 °F 24.4 °F 33.1 °F 100% 29.95 in - NNW 11.5 mph - N/A   Unknown
3:56 AM 34.0 °F 24.6 °F 33.1 °F 96% 29.94 in - NNW 13.8 mph - N/A   Unknown
4:56 AM 33.1 °F 23.9 °F 32.0 °F 96% 29.94 in - NNW 12.7 mph - N/A   Unknown
5:56 AM 32.0 °F 21.2 °F 32.0 °F 100% 29.96 in - NNW 16.1 mph - N/A   Unknown
6:56 AM 34.0 °F 25.5 °F 33.1 °F 96% 29.98 in - NNW 11.5 mph - N/A   Unknown
7:56 AM 35.1 °F 29.3 °F 34.0 °F 96% 29.98 in - NNW 6.9 mph - N/A   Unknown
8:56 AM 37.9 °F 29.2 °F 33.1 °F 83% 29.99 in - NNW 15.0 mph - N/A   Unknown
9:56 AM 37.0 °F 28.9 °F 32.0 °F 82% 29.99 in - NW 12.7 mph - N/A   Unknown
10:56 AM 37.9 °F 32.1 °F 33.1 °F 83% 29.99 in - North 8.1 mph - N/A   Unknown
11:56 AM 37.9 °F 30.0 °F 33.1 °F 83% 30.00 in - North 12.7 mph - N/A   Unknown
12:56 PM 37.9 °F 29.6 °F 33.1 °F 83% 30.00 in - North 13.8 mph - N/A   Unknown
1:56 PM 37.0 °F 28.5 °F 34.0 °F 89% 30.00 in - North 13.8 mph - N/A   Unknown
2:56 PM 37.9 °F 30.0 °F 34.0 °F 86% 30.01 in - North 12.7 mph - N/A   Unknown
3:56 PM 37.0 °F 27.7 °F 33.1 °F 86% 30.01 in - North 16.1 mph - N/A   Unknown
4:56 PM 37.0 °F 31.0 °F 33.1 °F 86% 30.00 in - NW 8.1 mph - N/A   Unknown
5:56 PM 37.0 °F 28.9 °F 32.0 °F 82% 29.99 in - NNW 12.7 mph - N/A   Unknown
6:56 PM 35.1 °F 27.9 °F 32.0 °F 89% 29.99 in - NNW 9.2 mph - N/A   Unknown
7:56 PM 33.1 °F 25.5 °F 30.9 °F 92% 29.99 in - NNW 9.2 mph - N/A   Unknown
8:56 PM 33.1 °F 24.9 °F 32.0 °F 96% 29.99 in - NW 10.4 mph - N/A   Unknown
9:56 PM 32.0 °F 24.8 °F 30.9 °F 96% 30.00 in - NW 8.1 mph - N/A   Unknown
10:56 PM 34.0 °F 25.5 °F 30.0 °F 85% 29.98 in - NNW 11.5 mph - N/A   Unknown
11:56 PM 32.0 °F 27.5 °F 28.9 °F 88% 29.97 in - West 4.6 mph - N/A   Unknown